Location: Chugcreek
(42.0500°N, 104.9196°W)
Time: 22:25:28
(UTC+00:00)

ISS - Visible Passes

Search period start: 20 January 2022 00:00
Search period end: 30 January 2022 00:00
Orbit: 413 x 422 km, 51.6° (Epoch: 20 January)

Date Brightness Start Highest point End Pass type
(mag) Time Alt. Az. Time Alt. Az. Time Alt. Az.
20 Jan -3.4 01:45:59 10° WSW 01:49:15 54° NNW 01:49:25 53° NNW visible
21 Jan -3.8 00:57:57 10° SW 01:01:16 88° NW 01:03:34 19° NE visible
21 Jan -0.7 02:35:45 10° WNW 02:36:31 14° WNW 02:36:31 14° WNW visible
22 Jan -2.2 01:47:21 10° W 01:50:15 27° NNW 01:50:36 26° N visible
23 Jan -2.7 00:59:00 10° W 01:02:07 37° NNW 01:04:37 14° NE visible
23 Jan -0.5 02:37:23 10° NW 02:37:33 11° NW 02:37:33 11° NW visible
24 Jan -1.7 01:48:56 10° WNW 01:51:21 18° NNW 01:51:32 18° N visible
25 Jan -1.9 01:00:27 10° WNW 01:03:07 22° NNW 01:05:29 12° NNE visible
26 Jan -1.5 01:50:21 10° NW 01:52:20 16° N 01:52:20 16° N visible
27 Jan -1.6 01:01:57 10° NW 01:04:11 16° N 01:06:14 11° NNE visible
28 Jan -1.6 01:51:16 10° NW 01:53:04 17° N 01:53:04 17° N visible
29 Jan -1.7 01:03:05 10° NW 01:05:14 16° N 01:06:59 12° NE visible
29 Jan -0.6 02:39:45 10° NW 02:39:55 11° NW 02:39:55 11° NW visible
